Regional Weather Roundup
Issued by NWS Sioux Falls, SD

Home | Current Version | Previous Version | Text Only | Print | Product List | Glossary Off
Versions: 1 2 3 4 5 6 7 8 9 10 11 12 13 14 15 16 17 18 19 20 21 22 23 24 25 26 27 28 29 30 31 32 33 34 35 36 37 38 39 40 41 42 43 44 45 46 47 48 49 50

000
ASUS43 KFSD 280802
RWRFSD

WEATHER ROUNDUP FOR SE SOUTH DAKOTA/SW MINNESOTA/NW IOWA
NATIONAL WEATHER SERVICE SIOUX FALLS SD
300 AM CDT THU MAY 28 2015

NOTE: "FAIR" INDICATES FEW OR NO CLOUDS BELOW 12,000 FEET WITH NO
SIGNIFICANT WEATHER AND OR OBSTRUCTIONS TO VISIBILITY.


SDZ038>040-050-052>070-280900-
SOUTHEAST SOUTH DAKOTA

CITY           SKY/WX    TMP DP  RH WIND       PRES   REMARKS
BROOKINGS      MOCLDY    63  50  63 S8        30.03S
CHAMBERLAIN    MOCLDY    61  54  78 SE6       29.96F
HURON            N/A    N/A N/A N/A MISG      29.96S
MITCHELL       MOCLDY    64  51  62 S8        29.98S
SIOUX FALLS    MOCLDY    66  50  56 S9        30.02F
WINNER         FAIR      65  54  67 S12       29.96S
YANKTON        CLOUDY    66  50  55 S8        30.01S
$$

MNZ071-072-080-081-089-090-097-098-280900-
SOUTHWEST MINNESOTA

CITY           SKY/WX    TMP DP  RH WIND       PRES   REMARKS
FAIRMONT       PTCLDY    63  52  67 S6        30.05F
MARSHALL       MOCLDY    64  48  55 SW10      30.00F
REDWOOD FALLS  PTCLDY    65  53  65 S8        30.01F
WORTHINGTON    CLEAR     63  48  59 S9        30.06S
$$

IAZ001>003-012>014-020>022-031-032-NEZ013-014-SDZ071-280900-
NORTHWEST IOWA

CITY           SKY/WX    TMP DP  RH WIND       PRES   REMARKS
DENISON        CLEAR     63  54  72 CALM      30.06F
ESTHERVILLE    CLEAR     58  53  84 S7        30.06F
SIOUX CITY     PTCLDY    60  52  74 E9        30.04F
SPENCER        CLEAR     59  53  80 S6        30.07S
$$

ABBREVIATIONS USED IN REMARKS
   TC - TEMPERATURE IN CELSIUS
  WCI - WIND CHILL INDEX
   HX - HEAT INDEX
  VSB - VISIBILITY




USA.gov is the U.S. government's official web portal to all federal, state and local government web resources and services.